CW1187 Weather Reports


Display with metric or nautical units.
time (UTC)temp
F
wind
direction
speed
MPH
gust
MPH
rain 1hr
in
rain 24hr
in
rain mn
in
humidity
%
barometer
mb
20260503011543 46 0 0.0 2.0 0.00 0.00 0.00 56 1017.9
20260503011020 46 0 0.0 2.0 0.00 0.00 0.00 57 1017.8
20260503010520 46 346 0.0 2.0 0.00 0.00 0.00 55 1017.8
20260503010038 46 0 0.0 3.0 0.00 0.00 0.00 53 1017.8
20260503005521 46 346 0.0 3.0 0.00 0.00 0.00 52 1017.7
20260503005019 47 346 1.0 3.0 0.00 0.00 0.00 52 1017.8
20260503004542 47 0 1.0 2.0 0.00 0.00 0.00 54 1017.7
20260503004020 47 0 0.0 3.0 0.00 0.00 0.00 53 1017.7
20260503003521 47 343 0.0 3.0 0.00 0.00 0.00 51 1017.7
20260503003034 48 343 0.0 3.0 0.00 0.00 0.00 50 1017.7
20260503002521 48 0 0.0 4.0 0.00 0.00 0.00 50 1017.7
20260503002025 48 343 1.0 5.0 0.00 0.00 0.00 48 1017.6
20260503001533 48 338 2.0 8.0 0.00 0.00 0.00 47 1017.4
20260503001021 48 352 2.0 8.0 0.00 0.00 0.00 47 1017.4
20260503000524 48 350 3.0 8.0 0.00 0.00 0.00 45 1017.4
20260503000041 49 333 3.0 9.0 0.00 0.00 0.00 45 1017.4
20260502235518 49 327 3.0 9.0 0.00 0.00 0.00 46 1017.4
20260502235021 49 321 3.0 11.0 0.00 0.00 0.00 46 1017.4
20260502234539 49 360 2.0 11.0 0.00 0.00 0.00 46 1017.4
20260502234022 49 5 3.0 10.0 0.00 0.00 0.00 46 1017.4
20260502233518 49 360 5.0 10.0 0.00 0.00 0.00 44 1017.5
20260502233051 49 344 4.0 10.0 0.00 0.00 0.00 44 1017.5
20260502232518 49 345 4.0 8.0 0.00 0.00 0.00 46 1017.5
20260502232020 49 344 3.0 8.0 0.00 0.00 0.00 46 1017.5
20260502231556 49 355 2.0 9.0 0.00 0.00 0.00 45 1017.4
20260502231021 49 336 4.0 12.0 0.00 0.00 0.00 50 1017.5
20260502230520 49 13 5.0 14.0 0.00 0.00 0.00 45 1017.5
20260502230035 49 328 7.0 14.0 0.00 0.00 0.00 45 1017.6
20260502225521 50 348 4.0 9.0 0.00 0.00 0.00 45 1017.5
20260502225021 50 329 2.0 9.0 0.00 0.00 0.00 46 1017.4
20260502224533 50 355 5.0 11.0 0.00 0.00 0.00 46 1017.5
20260502224021 51 325 4.0 11.0 0.00 0.00 0.00 44 1017.5
20260502223521 51 328 4.0 13.0 0.00 0.00 0.00 49 1017.4
20260502223047 51 315 4.0 13.0 0.00 0.00 0.00 51 1017.4
20260502222519 50 351 4.0 15.0 0.00 0.00 0.00 46 1017.4
20260502222019 50 310 4.0 15.0 0.00 0.00 0.00 45 1017.5
20260502221545 51 355 6.0 12.0 0.00 0.00 0.00 44 1017.5
20260502221019 51 345 3.0 9.0 0.00 0.00 0.00 43 1017.5
20260502220521 52 326 4.0 9.0 0.00 0.00 0.00 44 1017.5
20260502220042 52 314 2.0 11.0 0.00 0.00 0.00 44 1017.5
20260502215521 52 291 3.0 11.0 0.00 0.00 0.00 50 1017.5
20260502215022 52 360 6.0 11.0 0.00 0.00 0.00 44 1017.4
20260502214535 52 291 4.0 12.0 0.00 0.00 0.00 47 1017.3
20260502214021 51 360 6.0 15.0 0.00 0.00 0.00 44 1017.2
20260502213521 52 338 8.0 15.0 0.00 0.00 0.00 43 1017.2
20260502213048 52 300 4.0 15.0 0.00 0.00 0.00 45 1017.3
20260502212520 52 326 8.0 13.0 0.00 0.00 0.00 48 1017.3
20260502212021 52 336 6.0 13.0 0.00 0.00 0.00 44 1017.3
20260502211544 52 320 4.0 13.0 0.00 0.00 0.00 45 1017.2
20260502211025 52 343 7.0 13.0 0.00 0.00 0.00 43 1017.2
20260502210521 51 352 6.0 13.0 0.00 0.00 0.00 43 1017.1
20260502210033 51 323 5.0 13.0 0.00 0.00 0.00 44 1017.2
20260502205524 51 355 6.0 15.0 0.00 0.00 0.00 44 1017.2
20260502205021 51 355 5.0 15.0 0.00 0.00 0.00 45 1017.3
20260502204534 52 355 5.0 15.0 0.00 0.00 0.00 44 1017.3
20260502204020 53 9 7.0 15.0 0.00 0.00 0.00 44 1017.2
20260502203521 53 333 5.0 11.0 0.00 0.00 0.00 44 1017.2
20260502203039 54 334 5.0 11.0 0.00 0.00 0.00 41 1017.2
20260502202517 55 15 3.0 12.0 0.00 0.00 0.00 45 1017.3
20260502202023 54 315 3.0 12.0 0.00 0.00 0.00 46 1017.2
20260502201538 54 360 5.0 12.0 0.00 0.00 0.00 47 1017.2
20260502201020 53 286 3.0 14.0 0.00 0.00 0.00 47 1017.3
20260502200520 52 302 4.0 14.0 0.00 0.00 0.00 45 1017.3
20260502200039 53 22 5.0 13.0 0.00 0.00 0.00 45 1017.3
20260502195521 54 22 7.0 13.0 0.00 0.00 0.00 46 1017.4
20260502195020 54 22 5.0 12.0 0.00 0.00 0.00 46 1017.3
20260502194537 53 301 4.0 10.0 0.00 0.00 0.00 50 1017.3
20260502194021 53 339 2.0 13.0 0.00 0.00 0.00 53 1017.4
20260502193521 53 325 5.0 14.0 0.00 0.00 0.00 47 1017.4
20260502193039 53 279 4.0 14.0 0.00 0.00 0.00 45 1017.5
20260502192521 54 355 7.0 14.0 0.00 0.00 0.00 44 1017.5
20260502192021 55 304 3.0 8.0 0.00 0.00 0.00 45 1017.5
20260502191540 54 323 4.0 11.0 0.00 0.00 0.00 51 1017.6
20260502191020 53 308 3.0 11.0 0.00 0.00 0.00 53 1017.7
20260502190523 51 5 4.0 13.0 0.00 0.00 0.00 52 1017.7
20260502190039 51 302 5.0 13.0 0.00 0.00 0.00 49 1017.8
20260502185524 51 355 4.0 11.0 0.00 0.00 0.00 45 1017.8
20260502185020 52 338 4.0 13.0 0.00 0.00 0.00 46 1017.9
20260502184538 53 343 6.0 13.0 0.00 0.00 0.00 42 1018.1
20260502184020 54 288 5.0 13.0 0.00 0.00 0.00 45 1018.0
20260502183521 53 302 3.0 11.0 0.00 0.00 0.00 49 1018.1
20260502183038 53 309 5.0 13.0 0.00 0.00 0.00 49 1018.1
20260502182520 52 308 4.0 13.0 0.00 0.00 0.00 45 1018.0
20260502182020 52 309 4.0 13.0 0.00 0.00 0.00 51 1018.2
20260502181540 52 340 5.0 13.0 0.00 0.00 0.00 46 1018.3
20260502181021 51 360 5.0 13.0 0.00 0.00 0.00 47 1018.3
20260502180521 51 352 6.0 12.0 0.00 0.00 0.00 48 1018.3
20260502164021 50 302 3.0 10.0 0.00 0.00 0.00 43 1018.7
20260502163520 50 275 2.0 11.0 0.00 0.00 0.00 45 1018.7
20260502163041 50 331 4.0 11.0 0.00 0.00 0.00 48 1018.7
20260502162524 50 360 6.0 10.0 0.00 0.00 0.00 43 1018.7
20260502162021 50 321 3.0 10.0 0.00 0.00 0.00 53 1018.7
20260502161538 50 331 4.0 10.0 0.00 0.00 0.00 47 1018.7
20260502161021 49 345 3.0 11.0 0.00 0.00 0.00 45 1018.7
20260502160522 49 328 3.0 11.0 0.00 0.00 0.00 46 1018.8
20260502152020 48 330 3.0 10.0 0.00 0.00 0.00 49 1019.0
20260502151540 47 355 1.0 10.0 0.00 0.00 0.00 45 1018.8
20260502151024 47 329 3.0 9.0 0.00 0.00 0.00 50 1018.9
20260502150518 47 288 3.0 9.0 0.00 0.00 0.00 54 1018.9
20260502130521 41 350 0.0 4.0 0.00 0.01 0.00 63 1018.7
20260502123541 40 0 1.0 3.0 0.00 0.01 0.00 70 1018.6
20260502123039 39 0 0.0 3.0 0.00 0.01 0.00 71 1018.4
20260502122520 39 13 1.0 4.0 0.00 0.01 0.00 68 1018.2
20260502122020 39 5 1.0 4.0 0.00 0.01 0.00 70 1018.2
20260502121545 39 349 0.0 2.0 0.00 0.01 0.00 72 1018.2
20260502121020 39 0 0.0 2.0 0.00 0.01 0.00 71 1018.2
20260502120517 39 346 0.0 3.0 0.00 0.01 0.00 72 1018.2
20260502115524 40 345 0.0 5.0 0.00 0.01 0.00 71 1018.0
20260502115021 40 355 2.0 6.0 0.00 0.01 0.00 72 1018.0
20260502114536 40 0 1.0 6.0 0.00 0.01 0.00 72 1017.9
20260502114021 39 338 1.0 5.0 0.00 0.01 0.00 74 1017.7
20260502113521 39 13 1.0 3.0 0.00 0.01 0.00 74 1017.5
20260502113039 38 13 1.0 2.0 0.00 0.01 0.00 76 1017.5
20260502112520 38 0 0.0 3.0 0.00 0.01 0.00 77 1017.7
20260502112018 38 14 0.0 3.0 0.00 0.01 0.00 77 1017.6
20260502111539 38 14 1.0 3.0 0.00 0.01 0.00 78 1017.6
20260502111019 38 345 0.0 3.0 0.00 0.01 0.00 78 1017.5
20260502110519 37 0 0.0 3.0 0.00 0.01 0.00 79 1017.4
20260502110038 37 0 0.0 2.0 0.00 0.01 0.00 80 1017.4
20260502105521 37 345 0.0 3.0 0.00 0.01 0.00 80 1017.4
20260502105021 37 345 1.0 3.0 0.00 0.01 0.00 80 1017.4
20260502104546 37 344 1.0 3.0 0.00 0.01 0.00 80 1017.4
20260502104018 37 0 0.0 0.0 0.00 0.01 0.00 80 1017.5
20260502103523 37 0 0.0 0.0 0.00 0.01 0.00 81 1017.6
20260502103037 37 0 0.0 0.0 0.00 0.01 0.00 81 1017.7
20260502102521 37 0 0.0 0.0 0.00 0.01 0.00 80 1017.6
20260502102019 37 0 0.0 0.0 0.00 0.01 0.00 80 1017.7
20260502101539 37 0 0.0 0.0 0.00 0.01 0.00 79 1017.6
20260502101023 37 0 0.0 0.0 0.00 0.01 0.00 79 1017.6
20260502100520 37 0 0.0 0.0 0.00 0.01 0.00 78 1017.6
20260502091533 39 0 0.0 0.0 0.00 0.01 0.00 75 1017.2
20260502091020 39 0 0.0 0.0 0.00 0.01 0.00 75 1017.2
20260502090520 39 0 0.0 0.0 0.00 0.01 0.00 75 1017.2
20260502071020 40 0 0.0 0.0 0.00 0.01 0.00 70 1017.3
20260502070522 40 0 0.0 0.0 0.00 0.01 0.00 71 1017.4
20260502070038 41 0 0.0 0.0 0.00 0.01 0.00 71 1017.4
20260502065521 41 0 0.0 1.0 0.00 0.01 0.00 70 1017.4
20260502065020 41 0 0.0 1.0 0.00 0.01 0.00 71 1017.5
20260502064537 41 0 0.0 1.0 0.00 0.01 0.00 71 1017.4
20260502064020 41 342 0.0 1.0 0.00 0.01 0.00 72 1017.5
20260502063521 41 0 0.0 1.0 0.00 0.01 0.00 71 1017.6
20260502063040 41 0 0.0 1.0 0.00 0.01 0.00 71 1017.6
20260502062524 41 0 0.0 1.0 0.00 0.01 0.00 71 1017.7
20260502062024 41 0 0.0 1.0 0.00 0.01 0.00 71 1017.7
20260502061540 41 0 0.0 1.0 0.00 0.01 0.00 71 1017.7
20260502061020 41 0 0.0 2.0 0.00 0.01 0.00 71 1017.6
20260502060520 42 0 0.0 2.0 0.00 0.01 0.00 71 1017.6
20260502060039 42 342 0.0 1.0 0.00 0.01 0.00 71 1017.7
20260502055523 42 0 0.0 2.0 0.00 0.01 0.00 72 1017.6
20260502055021 42 0 0.0 2.0 0.00 0.01 0.00 73 1017.6
20260502054540 42 342 0.0 2.0 0.00 0.01 0.00 73 1017.6
20260502054021 42 342 0.0 2.0 0.00 0.01 0.00 73 1017.5
20260502053520 42 342 0.0 2.0 0.00 0.01 0.00 72 1017.5
20260502053035 42 342 0.0 2.0 0.00 0.01 0.00 73 1017.5
20260502052520 42 342 1.0 2.0 0.00 0.01 0.00 72 1017.6
20260502052020 42 339 1.0 2.0 0.00 0.01 0.00 72 1017.6
20260502051549 42 0 0.0 2.0 0.00 0.01 0.00 73 1017.7
20260502051020 42 0 0.0 2.0 0.00 0.01 0.00 75 1017.7
20260502050521 42 338 0.0 2.0 0.00 0.01 0.00 77 1017.8
20260502050039 41 0 0.0 2.0 0.00 0.01 0.00 78 1017.8
20260502045521 41 337 0.0 1.0 0.00 0.01 0.00 79 1017.9
20260502045021 40 337 0.0 1.0 0.00 0.01 0.00 82 1017.9
20260502044539 40 0 0.0 1.0 0.00 0.01 0.00 84 1017.9
20260502044020 40 0 0.0 1.0 0.00 0.01 0.00 84 1017.9
20260502043520 40 0 0.0 1.0 0.00 0.01 0.00 84 1017.8
20260502043043 40 0 0.0 1.0 0.00 0.01 0.00 84 1017.7
20260502042521 41 0 0.0 0.0 0.00 0.01 0.00 83 1017.7
20260502042020 41 0 0.0 0.0 0.00 0.01 0.00 83 1017.7
20260502041540 41 0 0.0 0.0 0.00 0.01 0.00 83 1017.8
20260502041021 41 0 0.0 1.0 0.00 0.01 0.00 83 1017.7
20260502040521 41 0 0.0 1.0 0.00 0.01 0.00 83 1017.6
20260502040034 41 0 0.0 0.0 0.00 0.01 0.00 82 1017.7
20260502035520 41 0 0.0 1.0 0.00 0.01 0.01 81 1017.7
20260502035021 41 0 0.0 1.0 0.00 0.01 0.01 81 1017.7
20260502034542 42 0 0.0 1.0 0.00 0.01 0.01 81 1017.6
20260502034020 42 0 0.0 1.0 0.00 0.01 0.01 81 1017.6
20260502033520 42 0 0.0 1.0 0.00 0.01 0.01 81 1017.7
20260502033049 42 337 0.0 1.0 0.00 0.01 0.01 81 1017.7
20260502032520 42 0 0.0 0.0 0.00 0.01 0.01 80 1017.6
20260502032020 42 0 0.0 0.0 0.00 0.01 0.01 80 1017.6
20260502031556 42 0 0.0 0.0 0.00 0.01 0.01 80 1017.6
20260502031020 42 0 0.0 0.0 0.00 0.01 0.01 79 1017.6
20260502030521 43 0 0.0 0.0 0.00 0.01 0.01 78 1017.7
20260502030037 43 0 0.0 0.0 0.00 0.01 0.01 78 1017.7
20260502025520 43 0 0.0 0.0 0.00 0.01 0.01 78 1017.7
20260502025020 43 0 0.0 0.0 0.00 0.01 0.01 78 1017.7
20260502024535 43 0 0.0 0.0 0.00 0.01 0.01 78 1017.7
20260502024021 43 0 0.0 0.0 0.00 0.01 0.01 78 1017.8
20260502023523 43 0 0.0 0.0 0.00 0.01 0.01 78 1017.9
20260502023039 43 0 0.0 0.0 0.00 0.01 0.01 77 1017.7
20260502022519 43 0 0.0 0.0 0.00 0.01 0.01 77 1017.7
20260502022020 44 0 0.0 0.0 0.00 0.01 0.01 77 1017.7
20260502021540 44 0 0.0 0.0 0.00 0.01 0.01 77 1017.7
20260502021021 44 0 0.0 0.0 0.00 0.01 0.01 76 1017.5
20260502020520 44 0 0.0 0.0 0.00 0.01 0.01 76 1017.4
20260502020041 44 0 0.0 1.0 0.00 0.01 0.01 76 1017.3
20260502015521 44 0 0.0 1.0 0.00 0.01 0.01 76 1017.2
20260502015021 45 0 0.0 0.0 0.00 0.01 0.01 74 1017.1
20260502014539 45 0 0.0 0.0 0.00 0.01 0.01 74 1016.8
20260502014020 45 0 0.0 0.0 0.00 0.01 0.01 73 1016.9
20260502013521 46 0 0.0 0.0 0.00 0.01 0.01 72 1016.8
20260502013035 46 0 0.0 0.0 0.00 0.01 0.01 72 1016.8
20260502012520 46 0 0.0 3.0 0.00 0.01 0.01 72 1016.7
20260502012021 46 0 0.0 3.0 0.00 0.01 0.01 71 1016.5